Simultaneous Nadir Overpasses (SNOs) Predictions

Prediction of SNOs between LANDSAT-8 and METOP-A Satellite Orbit:

Table of predicted SNOs for the next 14.0 days since TLE Epoch: 11/3/2018
Index Date (LANDSAT-8) Time (LANDSAT-8) Lat,Lon (LANDSAT-8) SZA (LANDSAT-8 ) Date (METOP-A) Time (METOP-A) Lat,Lon (METOP-A) SZA (METOP-A ) Distance(km) Time Diff (sec)
1 11/03/2018 14:06:38 -81.42,-166.56 80.57 11/03/2018 14:05:59 -81.41,-166.73 80.61 2.82 39
2 11/03/2018 14:56:04 81.42, 1.23 99.47 11/03/2018 14:56:38 81.42, 1.41 99.50 3.02 34
3 11/06/2018 09:40:54 -81.41,-100.26 79.74 11/06/2018 09:40:15 -81.41,-100.40 79.77 2.39 39
4 11/06/2018 10:30:20 81.42, 67.52 100.29 11/06/2018 10:30:54 81.42, 67.71 100.33 3.21 34
5 11/09/2018 05:15:09 -81.42, -33.60 78.89 11/09/2018 05:14:30 -81.41, -33.69 78.93 1.69 39
6 11/09/2018 06:04:35 81.43, 134.16 101.14 11/09/2018 06:05:10 81.42, 133.99 101.13 2.88 35
7 11/12/2018 00:49:24 -81.41, 32.64 78.15 11/12/2018 00:48:45 -81.41, 32.62 78.17 0.42 39
8 11/12/2018 01:38:50 81.42,-159.63 101.88 11/12/2018 01:39:25 81.42,-159.74 101.88 1.82 35
9 11/14/2018 20:23:39 -81.42, 99.23 77.40 11/14/2018 20:23:00 -81.42, 99.31 77.41 1.27 39




NCC Satellite Simultaneous Nadir Overpasses (SNOs) Prediction Service
